Previsão horária em Plogoff

Hoje, 7 Março, Domingo

Tempo Temperatura Precipitação Vento Pressão Humidade
00:00 +2°C° 0 mm 6 m/s 767 mmHg 77%
01:00 +1°C° 0 mm 6 m/s 767 mmHg 79%
02:00 0°C° 0 mm 5 m/s 766 mmHg 82%
03:00 0°C° 0 mm 5 m/s 766 mmHg 84%
04:00 -1°C° 0 mm 5 m/s 766 mmHg 83%
05:00 -1°C° 0 mm 5 m/s 766 mmHg 83%
06:00 -1°C° 0 mm 5 m/s 766 mmHg 82%
07:00 -1°C° 0 mm 6 m/s 766 mmHg 77%
08:00 +2°C° 0 mm 6 m/s 766 mmHg 72%
09:00 +3°C° 0 mm 6 m/s 766 mmHg 68%
10:00 +4°C° 0 mm 6 m/s 766 mmHg 65%
11:00 +5°C° 0 mm 6 m/s 766 mmHg 63%
12:00 +7°C° 0 mm 6 m/s 766 mmHg 60%
13:00 +7°C° 0 mm 6 m/s 765 mmHg 61%
14:00 +7°C° 0 mm 6 m/s 765 mmHg 62%
15:00 +6°C° 0 mm 7 m/s 765 mmHg 63%
16:00 +5°C° 0 mm 7 m/s 765 mmHg 67%
17:00 +4°C° 0 mm 7 m/s 764 mmHg 71%
18:00 +3°C° 0 mm 7 m/s 764 mmHg 75%
19:00 +2°C° 0 mm 7 m/s 765 mmHg 78%
20:00 0°C° 0 mm 7 m/s 765 mmHg 82%
21:00 -1°C° 0 mm 6 m/s 765 mmHg 85%
22:00 -1°C° 0 mm 6 m/s 765 mmHg 85%
23:00 -1°C° 0 mm 6 m/s 765 mmHg 86%

Amanhã, 8 Março, Segunda-feira

Tempo Temperatura Precipitação Vento Pressão Humidade
00:00 -1°C° 0 mm 5 m/s 765 mmHg 87%
01:00 -1°C° 0 mm 5 m/s 765 mmHg 87%
02:00 -1°C° 0 mm 5 m/s 765 mmHg 86%
03:00 -1°C° 0 mm 4 m/s 765 mmHg 86%
04:00 -1°C° 0 mm 4 m/s 765 mmHg 85%
05:00 -1°C° 0 mm 4 m/s 765 mmHg 85%
06:00 -2°C° 0 mm 5 m/s 765 mmHg 85%
07:00 0°C° 0 mm 5 m/s 765 mmHg 80%
08:00 +1°C° 0 mm 5 m/s 765 mmHg 75%
09:00 +2°C° 0 mm 5 m/s 765 mmHg 70%
10:00 +5°C° 0 mm 4 m/s 765 mmHg 66%
11:00 +6°C° 0 mm 4 m/s 765 mmHg 62%
12:00 +8°C° 0 mm 3 m/s 765 mmHg 57%
13:00 +7°C° 0 mm 4 m/s 765 mmHg 58%
14:00 +7°C° 0 mm 4 m/s 765 mmHg 59%
15:00 +7°C° 0 mm 4 m/s 765 mmHg 60%
16:00 +6°C° 0 mm 4 m/s 764 mmHg 64%
17:00 +5°C° 0 mm 5 m/s 764 mmHg 69%
18:00 +3°C° 0 mm 5 m/s 764 mmHg 73%
19:00 +2°C° 0 mm 5 m/s 765 mmHg 75%
20:00 +3°C° 0 mm 4 m/s 765 mmHg 77%
21:00 +1°C° 0 mm 4 m/s 765 mmHg 80%
22:00 +2°C° 0 mm 3 m/s 765 mmHg 80%
23:00 +2°C° 0 mm 3 m/s 765 mmHg 80%

Depois de amanhã, 9 Março, Terça-feira

Tempo Temperatura Precipitação Vento Pressão Humidade
00:00 +2°C° 0 mm 2 m/s 765 mmHg 80%
01:00 +2°C° 0 mm 2 m/s 765 mmHg 80%
02:00 +3°C° 0 mm 1 m/s 765 mmHg 81%
03:00 +3°C° 0 mm 1 m/s 764 mmHg 81%
04:00 +3°C° 0 mm 1 m/s 765 mmHg 81%
05:00 +3°C° 0 mm 1 m/s 765 mmHg 81%
06:00 +3°C° 0 mm 1 m/s 765 mmHg 81%
07:00 +4°C° 0 mm 1 m/s 765 mmHg 77%
08:00 +6°C° 0 mm 1 m/s 765 mmHg 73%
09:00 +6°C° 0 mm 2 m/s 765 mmHg 69%
10:00 +7°C° 0 mm 2 m/s 765 mmHg 68%
11:00 +8°C° 0 mm 3 m/s 765 mmHg 66%
12:00 +7°C° 0 mm 4 m/s 764 mmHg 65%
13:00 +7°C° 0 mm 4 m/s 764 mmHg 67%
14:00 +7°C° 0 mm 5 m/s 763 mmHg 68%
15:00 +7°C° 0 mm 5 m/s 763 mmHg 70%
16:00 +7°C° 0 mm 6 m/s 763 mmHg 73%
17:00 +7°C° 0 mm 6 m/s 762 mmHg 75%
18:00 +7°C° 0 mm 6 m/s 762 mmHg 78%
19:00 +6°C° 0 mm 7 m/s 762 mmHg 79%
20:00 +6°C° 0 mm 8 m/s 762 mmHg 79%
21:00 +6°C° 0 mm 8 m/s 762 mmHg 80%
22:00 +6°C° 0.1 mm 9 m/s 762 mmHg 80%
23:00 +6°C° 0.1 mm 10 m/s 761 mmHg 80%

10 Março, Quarta-feira

Tempo Temperatura Precipitação Vento Pressão Humidade
00:00 +7°C° 0.1 mm 10 m/s 761 mmHg 81%
01:00 +7°C° 0.6 mm 11 m/s 760 mmHg 83%
02:00 +5°C° 0.6 mm 12 m/s 759 mmHg 85%
03:00 +5°C° 0.6 mm 12 m/s 759 mmHg 87%
04:00 +7°C° 0.5 mm 12 m/s 759 mmHg 88%
05:00 +7°C° 0.5 mm 13 m/s 758 mmHg 89%
06:00 +7°C° 0.5 mm 13 m/s 758 mmHg 89%
07:00 +7°C° 0.6 mm 13 m/s 758 mmHg 90%
08:00 +7°C° 0.6 mm 13 m/s 758 mmHg 91%
09:00 +8°C° 0.6 mm 13 m/s 757 mmHg 92%
10:00 +8°C° 0.7 mm 13 m/s 757 mmHg 93%
11:00 +9°C° 0.7 mm 13 m/s 757 mmHg 94%
12:00 +9°C° 0.7 mm 13 m/s 757 mmHg 95%
13:00 +9°C° 0.2 mm 12 m/s 756 mmHg 94%
14:00 +9°C° 0.2 mm 12 m/s 756 mmHg 94%
15:00 +10°C° 0.2 mm 12 m/s 755 mmHg 94%
16:00 +10°C° 0 mm 12 m/s 755 mmHg 93%
17:00 +10°C° 0 mm 12 m/s 755 mmHg 92%
18:00 +10°C° 0 mm 12 m/s 754 mmHg 91%
19:00 +10°C° 0 mm 12 m/s 754 mmHg 91%
20:00 +10°C° 0 mm 13 m/s 754 mmHg 91%
21:00 +10°C° 0 mm 13 m/s 754 mmHg 90%
22:00 +10°C° 0 mm 13 m/s 754 mmHg 90%
23:00 +10°C° 0 mm 14 m/s 753 mmHg 91%

11 Março, Quinta-feira

Tempo Temperatura Precipitação Vento Pressão Humidade
00:00 +10°C° 0 mm 14 m/s 753 mmHg 91%
01:00 +10°C° 0.1 mm 14 m/s 753 mmHg 87%
02:00 +9°C° 0.1 mm 14 m/s 753 mmHg 83%
03:00 +9°C° 0.1 mm 14 m/s 753 mmHg 79%
04:00 +8°C° 0 mm 13 m/s 753 mmHg 77%
05:00 +8°C° 0 mm 13 m/s 754 mmHg 76%
06:00 +7°C° 0 mm 12 m/s 754 mmHg 74%
07:00 +8°C° 0.1 mm 12 m/s 754 mmHg 74%
08:00 +8°C° 0.1 mm 12 m/s 755 mmHg 73%
09:00 +8°C° 0.1 mm 13 m/s 755 mmHg 73%
10:00 +8°C° 0.1 mm 13 m/s 755 mmHg 72%
11:00 +9°C° 0.1 mm 13 m/s 755 mmHg 70%
12:00 +9°C° 0.1 mm 13 m/s 755 mmHg 68%
13:00 +9°C° 0.2 mm 13 m/s 755 mmHg 69%
14:00 +8°C° 0.2 mm 13 m/s 755 mmHg 70%
15:00 +8°C° 0.2 mm 13 m/s 755 mmHg 70%
16:00 +8°C° 0.2 mm 13 m/s 755 mmHg 71%
17:00 +7°C° 0.2 mm 13 m/s 755 mmHg 72%
18:00 +7°C° 0.2 mm 13 m/s 755 mmHg 73%
19:00 +7°C° 0.3 mm 13 m/s 755 mmHg 73%
20:00 +7°C° 0.3 mm 13 m/s 756 mmHg 74%
21:00 +5°C° 0.3 mm 13 m/s 756 mmHg 75%
22:00 +5°C° 0.2 mm 13 m/s 756 mmHg 74%
23:00 +5°C° 0.2 mm 12 m/s 756 mmHg 74%

12 Março, Sexta-feira

Tempo Temperatura Precipitação Vento Pressão Humidade
00:00 +6°C° 0.2 mm 11 m/s 757 mmHg 74%
01:00 +6°C° 0.1 mm 11 m/s 756 mmHg 74%
02:00 +6°C° 0.1 mm 10 m/s 756 mmHg 74%
03:00 +6°C° 0.1 mm 10 m/s 756 mmHg 75%
04:00 +6°C° 0.2 mm 9 m/s 756 mmHg 76%
05:00 +6°C° 0.2 mm 9 m/s 756 mmHg 77%
06:00 +6°C° 0.2 mm 9 m/s 756 mmHg 78%
07:00 +6°C° 0.2 mm 9 m/s 756 mmHg 77%
08:00 +7°C° 0.2 mm 9 m/s 756 mmHg 75%
09:00 +7°C° 0.2 mm 9 m/s 755 mmHg 74%
10:00 +8°C° 0.2 mm 9 m/s 755 mmHg 73%
11:00 +8°C° 0.2 mm 9 m/s 755 mmHg 71%
12:00 +8°C° 0.2 mm 9 m/s 755 mmHg 69%
13:00 +8°C° 0.1 mm 9 m/s 755 mmHg 68%
14:00 +9°C° 0.1 mm 8 m/s 754 mmHg 68%
15:00 +9°C° 0.1 mm 8 m/s 754 mmHg 67%
16:00 +9°C° 0.1 mm 8 m/s 753 mmHg 70%
17:00 +7°C° 0.1 mm 9 m/s 753 mmHg 74%
18:00 +7°C° 0.1 mm 9 m/s 752 mmHg 77%
19:00 +7°C° 0.4 mm 9 m/s 751 mmHg 78%
20:00 +7°C° 0.4 mm 10 m/s 751 mmHg 80%
21:00 +7°C° 0.4 mm 10 m/s 750 mmHg 81%
22:00 +7°C° 0.5 mm 10 m/s 750 mmHg 81%
23:00 +7°C° 0.5 mm 11 m/s 749 mmHg 82%
Mostrar mais

Necessitamos do seu Consentimento

A Meteoprog e os seus Fornecedores de Serviços podem armazenar e aceder a dados pessoais como cookies, identificadores do dispositivo ou outras tecnologias semelhantes existentes no seu dispositivo e processar estes dados para personalizar conteúdos e anúncios, assim como funcionalidades nas redes sociais e análise de tráfego.

  • Armazenar e/ou aceder a informações no seu dispositivo

    Os cookies, identificadores do dispositivo ou outras informações podem ser armazenados ou acedidos no seu dispositivo, para os fins acima indicados.

  • Anúncios e conteúdos personalizados, medição de anúncios e conteúdos, dados sobre o público-alvo e desenvolvimento de produtos

    Os anúncios e os conteúdos podem ser personalizados com base num perfil. Podem ser adicionados dados adicionais para uma maior personalização dos anúncios e dos conteúdos. A eficácia dos anúncios e dos conteúdos pode ser medida. Podem ser obtidas informações sobre o público que visualizou os anúncios e os conteúdos. Estes dados podem ser usados para desenvolver ou melhorar sistemas, softwares ou a experiência do utilizador.

Ao clicar em "Eu concordo”, permitirá o uso de cookies, identificadores do dispositivo e web beacons mencionados ou outras tecnologias semelhantes. As configurações do navegador do seu dispositivo podem ser alteradas.

Para certos fins, podem ser invocados interesses legítimos ao invés de consentimento. Pode ler mais informação sobre este assunto na nossa Política de Privacidade e Cookies.